Вернуться в каталог

STARLINK-33674

АктивенСвязьVLEO
NORAD 63329·PAYLOAD·🇺🇸 United States

Запущен Mar 18, 2025 с Cape Canaveral Space Force Station

Loading…

Ближайшие Пролёты (ближайшие 24 часа)

TLE

СвежийSource: CelesTrak SupGP

Эпоха: Sep 14, 2026, 21:04 UTC

1 63329C 25057Y   26257.87826389  .00064327  00000+0  23299-2 0  2570
2 63329  43.0014  42.4811 0001486 281.0092 328.9591 15.27545774    13

Отслеживайте STARLINK-33674 в реальном времени с AllMySat

Download on the App Store